This is the latest recevied weather packets stored in our database for station/object KV4OP. If no packets are shown the sender has not sent any weather packets the latest 10 day(s).
| Time | Temp. | Humidity | Pressure | Rain* | Wind** | Luminosity | Snow |
|---|---|---|---|---|---|---|---|
| 1777648527 | 30° C | 60% | 1012.9 hPa | 0 mm | - | - | - |
| 1777648221 | 30° C | 62% | 1013 hPa | 0 mm | - | - | - |
| 1777647919 | 30° C | 63% | 1013 hPa | 0 mm | - | - | - |
| 1777647634 | 29.44° C | 63% | 1013 hPa | 0 mm | - | - | - |
| 1777647318 | 29.44° C | 62% | 1013 hPa | 0 mm | - | - | - |
| 1777647018 | 30° C | 62% | 1012.9 hPa | 0 mm | - | - | - |
| 1777646717 | 30° C | 62% | 1012.8 hPa | 0 mm | - | - | - |
| 1777646418 | 29.44° C | 64% | 1012.9 hPa | 0 mm | - | - | - |
| 1777646115 | 29.44° C | 64% | 1012.9 hPa | 0 mm | - | - | - |
| 1777645815 | 28.89° C | 66% | 1012.7 hPa | 0 mm | - | - | - |
| 1777645516 | 28.33° C | 68% | 1012.7 hPa | 0 mm | - | - | - |
| 1777645213 | 28.33° C | 67% | 1012.6 hPa | 0 mm | - | - | - |
| 1777644914 | 28.89° C | 66% | 1012.7 hPa | 0 mm | - | - | - |
| 1777644610 | 28.89° C | 69% | 1012.7 hPa | 0 mm | - | - | - |
| 1777644311 | 28.33° C | 68% | 1012.6 hPa | 0 mm | - | - | - |
| 1777644009 | 27.78° C | 70% | 1012.7 hPa | 0 mm | - | - | - |
| 1777643709 | 27.78° C | 71% | 1012.8 hPa | 0 mm | - | - | - |
| 1777643408 | 27.78° C | 72% | 1012.9 hPa | 0 mm | - | - | - |
| 1777643108 | 27.22° C | 74% | 1012.8 hPa | 0 mm | - | - | - |
| 1777642808 | 27.22° C | 74% | 1012.7 hPa | 0 mm | - | - | - |
| 1777642505 | 26.67° C | 75% | 1012.7 hPa | 0 mm | - | - | - |
| 1777642205 | 26.67° C | 75% | 1012.8 hPa | 0 mm | - | - | - |
| 1777641905 | 26.67° C | 75% | 1012.8 hPa | 0 mm | - | - | - |
| 1777641604 | 26.67° C | 76% | 1013 hPa | 0 mm | - | - | - |
| 1777641313 | 26.67° C | 76% | 1012.9 hPa | 0 mm | - | - | - |
* Rain latest hour (hover to see other rain measurements)
** Current wind speed in m/s (hover to see current wind gust speed)